User: anonymous   Login
Location: Aragüita
(10.0436°N, 67.8028°W)
Time: 04:04:04
(UTC+00:00)
Language:

Cosmos 1862 Rocket - Orbit

View from above orbital plane
View from above orbital plane
View from above satellite
View from above satellite

Ground track
Ground track

The orbit data is extracted from the following two-line orbital elements,

1 18153U 87055B   24164.66292012  .00000662  00000-0  75620-4 0  9996
2 18153  82.5002 227.1095 0019937 314.6231  45.3358 14.84444951975690
Epoch (UTC): 12 June 2024 15:54:36
Eccentricity: 0.0019937
inclination: 82.5002°
perigee height: 601 km
apogee height: 629 km
right ascension of ascending node: 227.1095°
argument of perigee: 314.6231°
revolutions per day: 14.84444951
mean anomaly at epoch: 45.3358°
orbit number at epoch: 97569

The dashed part of the orbit path shows where the satellite is in the earth's shadow,  

DLR